User: anonymous   Login
Location: Unspecified
(0.0000°N, 0.0000°E)
Time: 18:02:41
(UTC+00:00)
Language:

ONEWEB-0223 - Orbit

View from above orbital plane
View from above orbital plane
View from above satellite
View from above satellite

Ground track
Ground track

The orbit is defined by the following mean orbital elements,

1 48768U          26145.37606867 +.00000000 +00000-0 +22905-3 0 00008
2 48768  87.8997 263.7338 0001490  96.0565 264.0735 13.15547687    04
Epoch (UTC): 25 May 2026 09:01:32
Eccentricity: 0.0001490
inclination: 87.8997°
perigee height: 1201 km
apogee height: 1203 km
right ascension of ascending node: 263.7338°
argument of perigee: 96.0565°
revolutions per day: 13.15547687
mean anomaly at epoch: 264.0735°

The dashed part of the orbit path shows where the satellite is in the earth's shadow,  

DLR